Date String (YYYY-MM-DD hh:mm:ss) UTC,Instrument flags,Ambient pressure (hPa),Sample flow (lpm),Bypass flow (lpm),Sample temperature (°C),Ambient temperature (°C),ASC tube jacket temperature (°C),LED temperature (°C),Box temperature (°C),Sample RH (%),Span deviation,Mass concentration (μg/m³),Mass concentration (μg/m³),Mass concentration (μg/m³)
DateTimeUTC,F1_M11,P_M11,Q1_M11,Q2_M11,T1_M11,T2_M11,T3_M11,T4_M11,T5_M11,U1_M11,ZSPAN_M11,X2_M11,X0_M11,X1_M11
2022-10-18 19:00:00,,0833.1,5.00,0.00,29.6,28.6,00.0,38.3,31.4,11.1,0000.0,0003.32,0008.53,0002.76
2022-10-18 19:01:00,,0833.2,5.00,0.00,29.6,28.6,00.0,38.3,31.4,11.2,0000.0,0003.33,0008.99,0002.76
2022-10-18 19:02:00,,0833.1,5.00,0.00,29.6,28.6,00.0,38.3,31.5,11.2,0000.0,0003.31,0008.83,0002.77
2022-10-18 19:03:00,,0833.1,4.99,0.00,29.7,28.7,00.0,38.4,31.5,11.1,0000.0,0003.31,0008.65,0002.78
2022-10-18 19:04:00,,0833.1,5.01,0.00,29.7,28.7,00.0,38.4,31.5,11.1,0000.0,0003.29,0008.65,0002.80
2022-10-18 19:05:00,,0833.2,4.99,0.00,29.7,28.7,00.0,38.4,31.5,11.1,0000.0,0003.29,0008.60,0002.81
2022-10-18 19:06:00,,0833.1,5.01,0.00,29.7,28.7,00.0,38.4,31.6,11.1,0000.0,0003.28,0008.66,0002.80
2022-10-18 19:07:00,,0833.1,5.00,0.00,29.7,28.7,00.0,38.4,31.6,11.1,0000.0,0003.33,0008.91,0002.80
2022-10-18 19:08:00,,0833.1,4.99,0.00,29.8,28.7,00.0,38.5,31.6,11.2,0000.0,0003.34,0009.93,0002.82
2022-10-18 19:09:00,,0833.1,5.01,0.00,29.8,28.8,00.0,38.5,31.6,11.4,0000.0,0003.31,0010.76,0002.82
2022-10-18 19:10:00,,0833.0,4.99,0.00,29.8,28.8,00.0,38.5,31.7,11.3,0000.0,0003.32,0010.01,0002.83
2022-10-18 19:11:00,,0833.0,5.01,0.00,29.8,28.8,00.0,38.5,31.7,11.2,0000.0,0003.32,0009.68,0002.83
2022-10-18 19:12:00,,0833.1,4.98,0.00,29.8,28.8,00.0,38.6,31.7,11.2,0000.0,0003.34,0010.22,0002.85
2022-10-18 19:13:00,,0833.0,5.02,0.00,29.9,28.8,00.0,38.6,31.7,11.3,0000.0,0003.37,0010.07,0002.86
2022-10-18 19:14:00,,0833.0,4.99,0.00,29.9,28.8,00.0,38.6,31.8,11.2,0000.0,0003.41,0010.34,0002.88
2022-10-18 19:15:00,,0833.1,5.01,0.00,29.9,28.8,00.0,38.6,31.7,11.2,0000.0,0003.44,0010.95,0002.90
2022-10-18 19:16:00,,0833.0,4.99,0.00,29.9,28.9,00.0,38.6,31.7,11.3,0000.0,0003.48,0011.03,0002.91
2022-10-18 19:17:00,,0833.1,5.01,0.00,29.9,28.9,00.0,38.7,31.7,11.3,0000.0,0003.47,0010.98,0002.93
2022-10-18 19:18:00,,0833.0,5.01,0.00,29.9,28.9,00.0,38.7,31.7,11.0,0000.0,0003.46,0010.78,0002.94
2022-10-18 19:19:00,,0833.0,4.99,0.00,30.0,28.9,00.0,38.7,31.8,11.2,0000.0,0003.47,0010.82,0002.93
2022-10-18 19:20:00,,0833.1,5.01,0.00,30.0,28.9,00.0,38.7,31.8,11.1,0000.0,0003.51,0009.53,0002.93
2022-10-18 19:21:00,,0833.1,4.99,0.00,30.0,29.0,00.0,38.7,31.9,11.3,0000.0,0003.52,0009.90,0002.93
2022-10-18 19:22:00,,0833.0,5.01,0.00,30.0,29.0,00.0,38.7,31.9,11.5,0000.0,0003.48,0009.62,0002.93
2022-10-18 19:23:00,,0833.0,5.01,0.00,30.0,29.0,00.0,38.8,31.9,11.3,0000.0,0003.46,0008.85,0002.94
2022-10-18 19:24:00,,0832.9,4.98,0.00,30.0,29.0,00.0,38.8,31.9,11.2,0000.0,0003.47,0008.59,0002.94
2022-10-18 19:25:00,,0832.8,5.01,0.00,30.1,29.0,00.0,38.8,31.9,11.1,0000.0,0003.44,0008.85,0002.94
2022-10-18 19:26:00,,0832.8,5.00,0.00,30.1,29.0,00.0,38.8,31.9,11.1,0000.0,0003.45,0009.19,0002.94
2022-10-18 19:27:00,,0832.8,4.99,0.00,30.1,29.0,00.0,38.8,31.9,11.2,0000.0,0003.45,0009.29,0002.94
2022-10-18 19:28:00,,0832.8,5.01,0.00,30.1,29.0,00.0,38.8,31.9,11.2,0000.0,0003.48,0009.54,0002.94
2022-10-18 19:29:00,,0832.8,5.00,0.00,30.1,29.0,00.0,38.9,32.0,11.1,0000.0,0003.51,0009.90,0002.96
2022-10-18 19:30:00,,0832.8,5.02,0.00,30.1,29.0,00.0,38.9,32.0,11.0,0000.0,0003.54,0009.65,0003.00
2022-10-18 19:31:00,,0832.8,4.99,0.00,30.1,29.1,00.0,38.9,32.0,11.0,0000.0,0003.56,0009.98,0003.02
2022-10-18 19:32:00,,0832.9,5.01,0.00,30.2,29.1,00.0,38.9,32.0,10.9,0000.0,0003.59,0010.04,0003.02
2022-10-18 19:33:00,,0832.9,4.99,0.00,30.2,29.1,00.0,38.9,32.0,10.8,0000.0,0003.60,0010.03,0003.02
2022-10-18 19:34:00,,0832.8,5.01,0.00,30.2,29.1,00.0,38.9,32.0,10.7,0000.0,0003.64,0011.56,0003.03
2022-10-18 19:35:00,,0832.9,5.01,0.00,30.2,29.1,00.0,38.9,32.0,10.6,0000.0,0003.66,0012.21,0003.02
2022-10-18 19:36:00,,0832.9,4.99,0.00,30.2,29.1,00.0,38.9,32.0,10.7,0000.0,0003.67,0011.96,0003.00
2022-10-18 19:37:00,,0832.8,5.01,0.00,30.2,29.1,00.0,39.0,32.1,10.6,0000.0,0003.65,0011.04,0002.98
2022-10-18 19:38:00,,0832.9,5.00,0.00,30.2,29.1,00.0,39.0,32.1,10.5,0000.0,0003.63,0010.75,0002.95
2022-10-18 19:39:00,,0832.8,5.00,0.00,30.2,29.1,00.0,39.0,32.1,10.4,0000.0,0003.58,0010.53,0002.94
2022-10-18 19:40:00,,0832.8,5.00,0.00,30.3,29.2,00.0,39.0,32.1,10.5,0000.0,0003.57,0010.42,0002.92
2022-10-18 19:41:00,,0832.8,4.99,0.00,30.3,29.2,00.0,39.0,32.1,10.4,0000.0,0003.57,0010.38,0002.89
2022-10-18 19:42:00,,0832.8,5.01,0.00,30.3,29.2,00.0,39.0,32.1,10.4,0000.0,0003.56,0010.12,0002.89
2022-10-18 19:43:00,,0832.7,4.99,0.00,30.3,29.2,00.0,39.0,32.1,10.5,0000.0,0003.55,0009.58,0002.88
2022-10-18 19:44:00,,0832.7,5.01,0.00,30.3,29.3,00.0,39.1,32.1,10.6,0000.0,0003.57,0010.07,0002.86
2022-10-18 19:45:00,,0832.8,4.98,0.00,30.3,29.3,00.0,39.1,32.1,10.7,0000.0,0003.51,0008.49,0002.85
2022-10-18 19:46:00,,0832.7,5.01,0.00,30.3,29.3,00.0,39.1,32.1,10.6,0000.0,0003.49,0007.99,0002.85
2022-10-18 19:47:00,,0832.8,5.01,0.00,30.4,29.3,00.0,39.1,32.2,10.8,0000.0,0003.49,0007.99,0002.86
2022-10-18 19:48:00,,0832.8,4.98,0.00,30.4,29.3,00.0,39.1,32.2,10.6,0000.0,0003.51,0008.13,0002.88
2022-10-18 19:49:00,,0832.8,5.02,0.00,30.4,29.3,00.0,39.1,32.2,10.5,0000.0,0003.52,0008.51,0002.90
2022-10-18 19:50:00,,0832.8,5.00,0.00,30.4,29.4,00.0,39.1,32.2,10.5,0000.0,0003.54,0008.89,0002.90
2022-10-18 19:51:00,,0832.8,4.99,0.00,30.4,29.4,00.0,39.2,32.2,10.3,0000.0,0003.53,0008.70,0002.91
2022-10-18 19:52:00,,0832.8,5.01,0.00,30.4,29.4,00.0,39.2,32.3,10.3,0000.0,0003.52,0008.59,0002.91
2022-10-18 19:53:00,,0832.7,4.98,0.00,30.5,29.4,00.0,39.2,32.3,10.3,0000.0,0003.52,0008.40,0002.91
2022-10-18 19:54:00,,0832.7,5.01,0.00,30.5,29.5,00.0,39.2,32.3,10.2,0000.0,0003.52,0008.18,0002.92
2022-10-18 19:55:00,,0832.7,4.98,0.00,30.5,29.5,00.0,39.2,32.3,10.2,0000.0,0003.53,0007.74,0002.92
2022-10-18 19:56:00,,0832.7,5.01,0.00,30.5,29.5,00.0,39.2,32.3,10.2,0000.0,0003.56,0007.76,0002.93
2022-10-18 19:57:00,,0832.7,4.98,0.00,30.5,29.5,00.0,39.3,32.3,10.2,0000.0,0003.55,0007.66,0002.94
2022-10-18 19:58:00,,0832.7,5.01,0.00,30.6,29.6,00.0,39.3,32.4,10.1,0000.0,0003.54,0007.61,0002.93
2022-10-18 19:59:00,,0832.7,4.99,0.00,30.6,29.6,00.0,39.3,32.4,10.1,0000.0,0003.54,0007.59,0002.92
